Volver al catálogo

BREEZE-M DEB

LostHEO
NORAD 39990·DEBRIS·🇷🇺 Russia

Lanzado Mar 14, 2008 desde Baikonur Cosmodrome

Loading…

Próximos Pases (próximas 24 horas)

TLE

ObsoletoSource: Space-Track

Época: Jul 29, 2021, 07:26 UTC

1 39990U 08011DP  21210.30986953 -.00000043  00000-0  81247-3 0  9992
2 39990  49.2081  50.8060 6329874 225.2565 350.1367  3.29643001115517

Sigue BREEZE-M DEB en tiempo real con AllMySat

Download on the App Store